This is the latest recevied weather packets stored in our database for station/object DL6MAA-11. If no packets are shown the sender has not sent any weather packets the latest 10 day(s).
| Time | Temp. | Humidity | Pressure | Rain* | Wind** | Luminosity | Snow |
|---|---|---|---|---|---|---|---|
| 1777920419 | 18.33° C | 60% | 1010.6 hPa | 0 mm | - | 0 W/m² | - |
| 1777920124 | 18.33° C | 58% | 1009.7 hPa | 0 mm | - | 0 W/m² | - |
| 1777919833 | 18.89° C | 56% | 1009.7 hPa | 0 mm | - | 0 W/m² | - |
| 1777919523 | 19.44° C | 53% | 1009.7 hPa | 0 mm | - | 0 W/m² | - |
| 1777919216 | 20° C | 52% | 1009.3 hPa | 0 mm | - | 0 W/m² | - |
| 1777918921 | 20° C | 52% | 1009.3 hPa | 0 mm | - | 5 W/m² | - |
| 1777918618 | 20.56° C | 48% | 1009.3 hPa | 0 mm | - | 7 W/m² | - |
| 1777918321 | 20.56° C | 47% | 1008.5 hPa | 0 mm | - | 5 W/m² | - |
| 1777918024 | 20.56° C | 45% | 1008.5 hPa | 0 mm | - | 9 W/m² | - |
| 1777917722 | 20.56° C | 45% | 1008.5 hPa | 0 mm | - | 11 W/m² | - |
| 1777917430 | 20.56° C | 45% | 1008.4 hPa | 0 mm | - | 14 W/m² | - |
| 1777917133 | 20.56° C | 45% | 1008.4 hPa | 0 mm | - | 19 W/m² | - |
| 1777916820 | 20.56° C | 46% | 1008.4 hPa | 0 mm | - | 33 W/m² | - |
| 1777916521 | 20.56° C | 46% | 1008.4 hPa | 0 mm | - | 35 W/m² | - |
| 1777916229 | 20.56° C | 44% | 1008.4 hPa | 0 mm | - | 35 W/m² | - |
| 1777915932 | 20.56° C | 45% | 1008.4 hPa | 0 mm | - | 33 W/m² | - |
| 1777915618 | 20.56° C | 44% | 1009.2 hPa | 0 mm | - | 35 W/m² | - |
| 1777915320 | 20.56° C | 43% | 1009.2 hPa | 0 mm | - | 40 W/m² | - |
| 1777915025 | 21.11° C | 43% | 1009.2 hPa | 0 mm | - | 47 W/m² | - |
| 1777914715 | 21.11° C | 45% | 1008.8 hPa | 0 mm | - | 58 W/m² | - |
| 1777914422 | 21.11° C | 43% | 1008.8 hPa | 0 mm | - | 65 W/m² | - |
| 1777914127 | 21.11° C | 43% | 1008.8 hPa | 0 mm | - | 69 W/m² | - |
| 1777913815 | 21.11° C | 43% | 1008.7 hPa | 0 mm | - | 77 W/m² | - |
| 1777913522 | 21.11° C | 42% | 1008.7 hPa | 0 mm | - | 79 W/m² | - |
| 1777913231 | 21.11° C | 43% | 1008.7 hPa | 0 mm | - | 83 W/m² | - |
* Rain since midnight (hover to see other rain measurements)
** Current wind speed in m/s (hover to see current wind gust speed)